Everett, WA

2:56 AM PST on November 14, 2019 (GMT -0800)
Snohomish County

Weather History for KPAE - August, 2019

Change the Weather History Date:

Sunday, August 4, 2019

  Actual Average Record
Temperature  
Mean Temperature 69 °F -  
Max Temperature 81 °F 75 °F 88 °F (2017)
Min Temperature 57 °F 54 °F 41 °F (1955)
Cooling Degree Days 4    
Growing Degree Days 19 (Base 50)    
Moisture  
Dew Point 53 °F    
Average Humidity 60    
Maximum Humidity 81    
Minimum Humidity 39    
Precipitation  
Precipitation 0.00 in - - ()
Sea Level Pressure  
Sea Level Pressure 30.03 in    
Wind  
Wind Speed 5 mph (North)    
Max Wind Speed 10 mph    
Max Gust Speed -    
Visibility 10 miles    
Events      
Averages and records for this station are not official NWS values.
T = Trace of Precipitation, MM = Missing Value Source: NWS Daily Summary

Daily Weather History Graph

Daily Weather History Graph

Search for Another Location

Airport or City:

Astronomy

Aug. 04, 2019 Rise Set
Actual Time 5:49 AM PDT 8:40 PM PDT
Civil Twilight 5:13 AM PDT 9:15 PM PDT
Nautical Twilight 4:27 AM PDT 10:01 PM PDT
Astronomical Twilight 3:32 AM PDT 10:56 PM PDT
Moon 10:18 AM PDT (8/4) 11:02 PM PDT (8/4)
Length of Visible Light 16h 02m
Length of Day
14h 50m
Waxing Crescent, 19% of the Moon is Illuminated
Aug 4
Waxing Crescent
Aug 7
First Quarter
Aug 15
Full
Aug 23
Last Quarter
Aug 30
New

Hourly Weather History & Observations

Time (PDT) Temp. Heat Index Dew Point Humidity Pressure Visibility Wind Dir Wind Speed Gust Speed Precip Events Conditions
12:53 AM 59.0 °F - 52.0 °F 78% 30.06 in 10.0 mi North 3.5 mph - N/A   Clear
1:53 AM 57.9 °F - 52.0 °F 81% 30.06 in 10.0 mi North 3.5 mph - N/A   Clear
2:53 AM 59.0 °F - 53.1 °F 81% 30.06 in 10.0 mi NNE 5.8 mph - N/A   Clear
3:53 AM 57.9 °F - 52.0 °F 81% 30.06 in 10.0 mi NNE 3.5 mph - N/A   Clear
4:53 AM 61.0 °F - 51.1 °F 70% 30.05 in 10.0 mi NNE 4.6 mph - N/A   Clear
5:53 AM 59.0 °F - 51.1 °F 75% 30.06 in 10.0 mi NNE 3.5 mph - N/A   Clear
6:53 AM 61.0 °F - 50.0 °F 67% 30.07 in 10.0 mi North 3.5 mph - N/A   Clear
7:53 AM 63.0 °F - 51.1 °F 65% 30.07 in 10.0 mi North 4.6 mph - N/A   Clear
8:53 AM 64.0 °F - 53.1 °F 67% 30.07 in 10.0 mi North 6.9 mph - N/A   Clear
9:53 AM 66.0 °F - 55.0 °F 68% 30.07 in 10.0 mi North 5.8 mph - N/A   Clear
10:53 AM 69.1 °F - 55.9 °F 63% 30.07 in 10.0 mi NNW 6.9 mph - N/A   Clear
11:53 AM 72.0 °F - 54.0 °F 53% 30.06 in 10.0 mi Variable 6.9 mph - N/A   Clear
12:53 PM 75.0 °F - 55.9 °F 51% 30.04 in 10.0 mi North 8.1 mph - N/A   Clear
1:53 PM 75.9 °F - 55.9 °F 50% 30.04 in 10.0 mi North 8.1 mph - N/A   Clear
2:53 PM 79.0 °F - 55.9 °F 45% 30.02 in 10.0 mi Variable 6.9 mph - N/A   Clear
3:53 PM 80.1 °F 80.2 °F 55.9 °F 43% 30.01 in 10.0 mi North 8.1 mph - N/A   Clear
4:53 PM 81.0 °F 80.5 °F 54.0 °F 39% 29.99 in 10.0 mi North 9.2 mph - N/A   Clear
5:53 PM 80.1 °F 80.1 °F 55.0 °F 42% 29.98 in 10.0 mi North 10.4 mph - N/A   Clear
6:53 PM 78.1 °F - 55.0 °F 45% 29.98 in 10.0 mi NNW 6.9 mph - N/A   Clear
7:53 PM 75.0 °F - 55.0 °F 50% 29.98 in 10.0 mi NNW 5.8 mph - N/A   Clear
8:53 PM 73.0 °F - 53.1 °F 49% 29.99 in 10.0 mi NNW 4.6 mph - N/A   Clear
9:53 PM 71.1 °F - 52.0 °F 51% 30.00 in 10.0 mi Calm Calm - N/A   Clear
10:53 PM 68.0 °F - 52.0 °F 56% 30.00 in 10.0 mi North 4.6 mph - N/A   Clear
11:53 PM 66.0 °F - 52.0 °F 60% 30.01 in 10.0 mi Calm Calm - N/A   Clear